This is the latest recevied weather packets stored in our database for station/object R1CBW-13. If no packets are shown the sender has not sent any weather packets the latest 10 day(s).
| Time | Temp. | Humidity | Pressure | Rain* | Wind** | Luminosity | Snow |
|---|---|---|---|---|---|---|---|
| 1778327493 | 11.67° C | 31% | 1026.9 hPa | 0 mm | - | - | - |
| 1778327433 | 11.11° C | 31% | 1027 hPa | 0 mm | - | - | - |
| 1778327373 | 12.22° C | 29% | 1026.9 hPa | 0 mm | - | - | - |
| 1778327313 | 12.22° C | 29% | 1026.8 hPa | 0 mm | - | - | - |
| 1778327253 | 12.22° C | 30% | 1026.9 hPa | 0 mm | - | - | - |
| 1778327193 | 12.78° C | 30% | 1026.9 hPa | 0 mm | - | - | - |
| 1778327133 | 11.67° C | 30% | 1026.8 hPa | 0 mm | - | - | - |
| 1778327073 | 12.22° C | 29% | 1026.8 hPa | 0 mm | - | - | - |
| 1778327013 | 11.67° C | 29% | 1026.7 hPa | 0 mm | - | - | - |
| 1778326953 | 11.67° C | 29% | 1026.9 hPa | 0 mm | - | - | - |
| 1778326893 | 12.22° C | 29% | 1027 hPa | 0 mm | - | - | - |
| 1778326833 | 12.22° C | 29% | 1026.8 hPa | 0 mm | - | - | - |
| 1778326773 | 11.67° C | 29% | 1027 hPa | 0 mm | - | - | - |
| 1778326713 | 12.22° C | 30% | 1026.9 hPa | 0 mm | - | - | - |
| 1778326653 | 11.67° C | 29% | 1026.9 hPa | 0 mm | - | - | - |
| 1778326593 | 12.22° C | 28% | 1026.8 hPa | 0 mm | - | - | - |
| 1778326533 | 11.67° C | 29% | 1026.9 hPa | 0 mm | - | - | - |
| 1778326473 | 11.67° C | 29% | 1026.9 hPa | 0 mm | - | - | - |
| 1778326413 | 12.78° C | 27% | 1026.8 hPa | 0 mm | - | - | - |
| 1778326353 | 12.78° C | 28% | 1026.8 hPa | 0 mm | - | - | - |
| 1778326293 | 12.22° C | 28% | 1026.8 hPa | 0 mm | - | - | - |
| 1778326233 | 12.22° C | 28% | 1026.9 hPa | 0 mm | - | - | - |
| 1778326173 | 11.67° C | 28% | 1026.9 hPa | 0 mm | - | - | - |
| 1778326113 | 12.22° C | 28% | 1026.9 hPa | 0 mm | - | - | - |
| 1778326053 | 12.78° C | 28% | 1026.9 hPa | 0 mm | - | - | - |
* Rain latest hour (hover to see other rain measurements)
** Current wind speed in m/s (hover to see current wind gust speed)